This is the latest recevied weather packets stored in our database for station/object KC4KQE. If no packets are shown the sender has not sent any weather packets the latest 10 day(s).
| Time | Temp. | Humidity | Pressure | Rain* | Wind** | Luminosity | Snow |
|---|---|---|---|---|---|---|---|
| 1777745057 | 30.56° C | 20% | 1014.9 hPa | 0 mm | - | 861 W/m² | - |
| 1777744757 | 30.56° C | 20% | 1014.9 hPa | 0 mm | - | 853 W/m² | - |
| 1777744458 | 30.56° C | 20% | 1014.9 hPa | 0 mm | - | 838 W/m² | - |
| 1777744157 | 30° C | 22% | 1014.9 hPa | 0 mm | - | 833 W/m² | - |
| 1777743857 | 30.56° C | 21% | 1015 hPa | 0 mm | - | 823 W/m² | - |
| 1777743557 | 29.44° C | 21% | 1015 hPa | 0 mm | - | 814 W/m² | - |
| 1777743257 | 30° C | 21% | 1015 hPa | 0 mm | - | 803 W/m² | - |
| 1777742957 | 29.44° C | 22% | 1015 hPa | 0 mm | - | 793 W/m² | - |
| 1777742657 | 29.44° C | 22% | 1015.1 hPa | 0 mm | - | 782 W/m² | - |
| 1777742357 | 29.44° C | 21% | 1015.2 hPa | 0 mm | - | 773 W/m² | - |
| 1777742057 | 29.44° C | 22% | 1015.1 hPa | 0 mm | - | 763 W/m² | - |
| 1777741758 | 28.89° C | 23% | 1015.1 hPa | 0 mm | - | 751 W/m² | - |
| 1777741457 | 28.89° C | 23% | 1015.1 hPa | 0 mm | - | 740 W/m² | - |
| 1777741157 | 28.89° C | 23% | 1015.2 hPa | 0 mm | - | 728 W/m² | - |
| 1777740858 | 28.33° C | 23% | 1015.1 hPa | 0 mm | - | 719 W/m² | - |
| 1777740557 | 28.89° C | 23% | 1015.1 hPa | 0 mm | - | 705 W/m² | - |
| 1777740257 | 28.33° C | 23% | 1015 hPa | 0 mm | - | 691 W/m² | - |
| 1777739957 | 28.33° C | 24% | 1015 hPa | 0 mm | - | 679 W/m² | - |
| 1777739657 | 28.33° C | 24% | 1015.1 hPa | 0 mm | - | 666 W/m² | - |
| 1777739357 | 27.78° C | 25% | 1015.1 hPa | 0 mm | - | 650 W/m² | - |
| 1777739057 | 27.78° C | 25% | 1015 hPa | 0 mm | - | 638 W/m² | - |
| 1777738757 | 27.78° C | 25% | 1015 hPa | 0 mm | - | 626 W/m² | - |
| 1777738457 | 27.22° C | 25% | 1015 hPa | 0 mm | - | 612 W/m² | - |
| 1777738157 | 27.78° C | 25% | 1014.9 hPa | 0 mm | - | 596 W/m² | - |
| 1777737857 | 27.22° C | 26% | 1014.9 hPa | 0 mm | - | 582 W/m² | - |
* Rain latest hour (hover to see other rain measurements)
** Current wind speed in m/s (hover to see current wind gust speed)